GFSMW_prec_cloud_198.txt.gz
Cloud_Cover
77 100 100 100 45 0 100 100 91 100 53 100 10 42 99 70 100 47 72 5 89 4 0 3 5 5 6 70 91 5 5 9 1 97 100 100 100 98 100 98 34 71 16
69 93 100 100 1 0 0 0 76 97 85 61 5 81 99 98 100 100 99 97 100 95 7 9 92 5 2 52 5 4 5 8 16 30 47 100 100 98 99 80 96 100 91
57 90 100 97 97 95 16 39 43 7 61 15 10 45 42 100 68 99 100 56 54 15 6 12 90 32 5 35 28 1 0 33 26 4 27 94 67 90 100 99 98 6 66
8 90 100 100 100 100 98 100 0 9 66 84 66 19 96 100 14 48 74 100 21 5 5 6 30 15 69 99 56 7 2 44 0 0 37 48 4 67 78 100 88 88 7
0 45 100 100 84 100 26 100 96 0 100 99 100 100 100 100 61 100 99 90 75 5 1 0 3 15 18 100 100 98 100 88 4 2 99 6 2 27 1 65 91 100 96
0 0 17 100 100 6 82 100 98 64 0 94 100 100 100 94 85 27 12 11 42 17 5 5 5 7 5 84 92 79 100 97 2 0 0 29 42 1 92 20 5 19 49
1 0 0 1 60 90 3 94 5 60 5 22 96 100 100 100 100 100 96 96 65 70 24 5 5 6 90 64 6 68 6 0 1 0 0 0 99 20 52 2 0 0 99
2 0 0 0 0 3 5 37 46 5 5 5 31 100 100 100 100 100 100 100 100 100 100 100 9 5 0 43 26 0 0 0 0 0 0 5 2 16 90 23 3 0 15
0 0 0 0 0 0 3 3 67 55 3 5 22 4 72 86 60 95 100 100 100 100 98 100 93 42 8 51 100 100 12 4 85 22 5 5 5 7 100 88 100 48 2
0 0 0 0 0 0 0 0 2 1 1 4 12 5 5 6 24 24 63 100 100 96 100 98 100 94 80 100 79 5 100 96 3 4 4 6 6 29 100 100 90 3 100
0 0 0 0 0 0 0 0 0 0 0 0 0 3 5 5 4 11 48 98 100 100 100 91 97 97 100 100 52 12 27 14 27 95 95 67 98 53 100 100 9 5 20
0 0 0 0 0 0 0 0 0 0 0 0 0 0 0 20 2 0 0 0 24 100 100 100 100 100 100 27 30 16 15 100 100 100 100 100 100 99 100 68 19 90 22
1 0 0 0 0 0 0 0 0 0 0 0 0 0 0 0 0 0 0 3 5 96 100 100 100 100 100 100 100 100 100 100 99 8 5 78 93 100 94 20 78 100 64
0 0 0 0 0 0 0 0 0 0 0 0 0 0 0 0 0 0 0 5 84 47 100 100 100 100 100 100 100 100 100 100 40 34 62 66 83 100 60 56 80 48 32
87 0 0 61 0 0 0 0 0 0 0 0 0 0 0 0 0 0 0 2 20 100 100 100 100 100 100 100 100 87 77 100 68 15 4 5 5 89 33 36 3 4 5
100 100 1 0 0 1 0 0 0 0 0 0 0 0 0 0 0 0 0 1 16 94 95 37 59 100 100 100 99 10 5 5 20 5 0 2 5 21 5 0 2 4 0
100 100 34 0 0 5 5 2 0 0 0 0 0 0 0 0 0 4 0 0 4 28 100 21 88 68 15 5 3 45 16 5 27 4 0 0 0 88 67 14 9 59 5
100 100 100 77 5 4 5 5 5 0 0 0 0 0 0 0 0 33 3 0 0 5 24 5 0 1 24 60 69 98 95 97 17 3 0 0 0 0 0 0 0 2 0
100 100 100 96 43 67 5 69 100 51 39 0 0 0 0 6 32 67 20 4 0 0 1 4 1 0 0 0 0 0 0 0 0 0 0 0 0 0 0 0 0 0 0
100 100 100 100 94 60 95 100 100 100 100 100 100 99 100 76 27 19 7 4 2 0 0 0 0 0 0 3 0 2 5 0 0 0 0 0 0 2 0 0 7 11 0
100 100 100 100 43 80 13 14 5 28 61 94 92 100 100 100 100 65 21 7 0 0 1 0 95 100 100 100 100 100 100 100 100 96 36 0 0 16 75 34 0 5 11
100 100 100 100 100 100 47 32 49 97 36 100 100 64 52 63 64 70 33 11 5 5 58 94 100 100 100 100 100 100 100 100 100 100 100 72 33 25 100 24 5 5 93
90 100 100 100 35 23 85 5 20 100 100 70 98 98 95 6 98 100 100 100 100 98 100 100 100 100 100 100 100 100 100 100 100 100 100 100 96 23 38 5 5 13 40
0 5 42 100 55 6 94 100 87 39 72 100 58 12 92 100 87 100 100 100 100 100 100 100 100 100 100 100 100 100 100 100 100 100 100 100 72 77 13 0 5 2 53
0 0 72 64 32 18 25 20 13 97 81 100 60 57 62 98 82 100 12 63 100 100 100 100 100 100 100 100 100 100 100 100 100 100 100 100 84 100 56 4 61 19 5
3 0 0 35 98 48 17 94 99 49 75 100 100 100 97 95 48 99 100 84 88 100 100 100 100 100 100 100 100 100 100 100 100 100 99 100 100 100 64 5 5 4 5

GFSMW_prec_cloud_201.txt.gz
Cloud_Cover
55 93 93 100 90 0 80 100 100 82 21 5 40 10 22 82 15 94 66 5 5 0 0 0 42 19 6 15 4 24 5 99 99 70 84 99 89 100 100 100 100 100 100
9 100 100 67 100 21 6 100 97 7 4 0 5 3 5 6 5 89 24 74 5 8 5 4 24 2 1 0 0 3 5 8 14 78 62 33 91 99 100 100 100 81 75
8 100 100 97 73 2 0 38 100 97 6 100 24 13 37 85 5 23 8 6 5 73 92 8 7 40 0 5 62 1 0 78 99 54 46 84 94 38 59 21 87 39 97
98 12 97 100 100 94 81 4 20 19 3 5 34 0 5 1 16 59 5 6 11 60 5 5 5 5 4 2 25 0 0 3 65 21 14 12 8 3 100 100 73 97 43
0 0 10 100 100 91 66 5 5 5 0 5 27 5 5 5 77 76 5 92 28 5 5 5 5 33 10 16 100 4 32 100 100 100 58 68 20 69 16 42 30 95 83
0 0 1 99 100 98 78 5 6 5 0 22 100 18 5 6 88 87 6 37 15 5 5 5 3 0 5 5 99 100 100 88 100 100 99 4 59 2 86 2 3 5 18
0 0 0 60 100 100 83 2 42 100 7 0 98 95 26 25 75 93 64 34 23 19 5 5 5 5 2 1 10 96 100 100 100 100 62 2 36 56 4 2 2 2 18
0 0 0 0 2 42 100 100 4 2 42 0 0 100 96 100 90 100 100 100 96 40 89 17 6 5 5 5 4 67 18 5 4 5 3 4 5 5 30 84 3 3 21
0 0 0 0 0 0 0 0 34 1 4 5 0 11 100 100 100 100 100 100 100 99 100 100 93 47 74 40 8 5 11 100 53 6 5 5 5 3 47 6 99 99 83
0 0 0 0 0 0 0 0 0 0 0 5 4 0 2 99 100 100 100 100 100 99 100 100 100 100 100 9 18 54 96 100 100 100 36 5 5 77 100 100 100 96 51
0 0 0 0 0 0 0 0 0 0 0 0 1 0 5 0 25 99 100 100 100 100 96 100 99 100 97 78 53 40 100 100 38 5 5 11 98 100 100 100 100 99 30
16 0 0 0 0 0 0 0 0 0 0 0 0 0 0 0 5 0 23 100 100 100 100 100 40 78 56 40 69 100 92 100 24 5 35 100 80 64 85 100 100 97 39
62 6 0 0 0 0 2 60 16 0 0 0 0 0 0 0 0 4 1 0 4 5 53 100 100 93 93 49 8 51 59 60 5 8 96 97 10 5 50 99 100 100 78
100 100 99 100 100 59 100 100 100 67 3 0 0 0 0 0 0 0 0 0 0 0 0 14 100 100 100 100 100 98 82 59 29 45 12 16 6 5 5 96 100 96 97
100 100 100 100 100 100 100 100 100 100 93 0 0 0 0 0 0 0 0 0 0 0 0 0 100 100 100 100 100 100 100 100 100 100 76 34 87 17 19 79 72 69 5
100 100 100 100 100 100 100 100 100 100 100 100 100 0 0 0 0 0 0 0 0 0 0 0 5 90 100 100 100 79 95 94 100 100 100 100 100 88 4 2 5 9 3
100 100 100 100 100 100 100 100 100 100 100 99 100 0 0 0 0 0 0 0 0 0 0 0 0 5 51 100 100 100 100 60 24 45 80 15 13 8 2 0 0 6 16
100 100 100 100 100 100 100 100 100 100 100 100 100 0 0 0 0 16 25 20 1 0 0 0 0 0 4 5 9 32 40 13 11 0 0 0 0 0 0 2 0 0 0
100 100 100 100 100 100 100 100 100 100 100 100 96 14 31 21 66 18 86 98 0 0 0 0 0 12 0 0 1 5 5 5 24 64 96 79 4 5 5 1 0 0 0
100 100 100 100 100 100 100 100 100 100 100 95 94 8 0 93 69 28 46 84 14 0 0 0 0 1 0 4 0 0 0 0 5 0 0 2 4 10 9 0 0 0 2
100 100 100 100 100 100 100 100 100 100 100 100 100 100 100 50 46 0 0 0 0 1 0 52 100 100 100 99 54 82 100 100 100 55 73 100 100 100 100 96 4 13 5
100 100 100 100 100 100 100 100 100 100 100 59 33 80 95 32 40 93 54 7 50 71 88 100 100 100 100 100 100 100 100 100 100 100 100 100 100 100 100 100 100 80 27
100 100 100 100 100 100 100 64 100 91 100 75 32 34 37 94 100 100 97 99 65 95 100 100 100 100 100 100 100 100 100 100 100 100 100 100 100 74 100 100 72 61 54
100 100 100 100 100 100 100 100 63 63 15 90 86 64 100 89 98 17 99 100 4 74 100 100 100 100 100 100 100 100 96 100 100 100 100 47 34 16 70 98 100 64 24
4 43 76 69 100 100 100 100 100 6 25 21 100 96 100 100 100 35 10 19 5 74 100 100 100 100 100 100 100 100 100 38 100 100 100 87 84 22 86 86 100 100 100
5 4 0 0 65 100 100 36 100 100 77 9 29 83 30 92 100 96 84 88 80 57 79 100 100 82 100 100 100 100 100 100 100 100 100 82 67 100 43 31 100 92 100

GFSMW_prec_cloud_207.txt.gz
Cloud_Cover
2 2 18 40 0 0 11 100 100 100 100 100 100 100 100 76 5 5 5 5 74 26 30 4 26 53 99 79 87 98 97 100 69 100 100 100 100 100 95 18 22 7 5
0 55 90 67 100 9 0 52 100 100 93 100 100 100 100 99 76 8 5 8 23 6 4 10 0 5 25 51 15 14 96 98 38 100 96 82 27 7 11 5 1 56 4
19 3 89 35 31 100 0 1 100 100 100 100 99 84 29 91 100 58 5 5 5 1 1 4 4 0 27 5 28 16 5 29 18 4 5 5 6 2 5 5 1 3 14
71 0 19 96 75 100 4 7 100 100 100 100 100 99 100 61 98 13 5 5 5 2 0 2 2 0 1 3 3 5 3 2 5 0 2 11 85 1 93 5 5 1 19
0 14 0 50 8 9 53 30 59 98 100 100 100 63 33 7 5 5 5 5 5 5 5 2 4 0 2 5 0 4 5 3 3 3 0 94 57 100 84 10 0 0 4
0 0 0 0 84 7 12 45 6 14 96 94 34 18 85 24 5 5 5 5 3 5 5 5 5 5 5 5 5 5 5 94 100 65 2 91 100 19 5 4 5 0 0
0 0 0 0 0 98 68 5 5 9 5 8 11 81 11 2 5 3 5 4 0 1 2 5 5 5 5 5 4 5 5 4 73 97 10 77 72 100 5 3 2 5 0
0 0 0 0 0 0 1 46 5 3 0 5 5 0 0 6 25 5 5 5 3 1 5 5 5 5 5 5 4 0 1 3 5 42 99 76 98 11 5 3 5 9 4
0 0 0 0 1 0 0 5 91 8 4 0 1 1 5 1 89 96 87 56 6 5 70 29 5 49 16 5 5 5 5 5 9 5 100 100 38 8 60 5 5 5 18
0 3 1 4 24 2 0 0 2 7 5 5 3 2 0 3 1 6 4 53 58 46 96 100 14 5 5 22 5 5 5 19 9 5 5 5 5 15 31 33 41 68 54
0 3 8 18 5 3 72 0 1 13 39 5 5 5 38 47 77 96 66 100 100 47 100 98 60 100 96 100 77 65 28 5 28 59 7 5 52 5 80 72 65 67 26
3 5 0 5 5 90 5 5 9 100 100 100 100 82 100 97 40 6 45 6 76 78 62 96 100 100 99 100 100 100 100 87 6 98 14 5 15 10 23 40 77 84 94
0 0 5 36 100 100 100 100 100 100 100 100 100 100 100 100 100 100 95 44 95 98 41 85 76 100 80 86 87 98 95 100 80 36 60 70 43 80 55 94 97 96 100
5 3 2 28 100 100 100 100 100 96 100 100 100 100 85 92 100 100 100 100 100 96 60 70 8 90 100 98 100 20 5 9 9 60 99 93 95 76 70 61 91 100 53
82 12 5 86 100 100 100 100 100 100 96 100 100 100 100 100 99 100 100 100 100 99 9 9 9 0 1 9 65 79 18 13 14 6 15 100 100 100 99 90 98 100 98
86 100 86 100 100 100 100 100 100 100 100 100 100 100 100 100 100 100 100 100 100 100 10 61 93 0 0 0 0 0 7 19 70 25 100 100 71 92 99 99 78 33 100
0 4 56 90 100 100 100 100 100 100 100 100 100 100 100 100 100 100 100 100 100 100 100 1 3 0 0 0 0 0 0 6 8 11 65 67 53 73 67 92 77 24 24
0 0 12 49 48 100 100 100 100 100 100 100 98 91 85 88 100 100 100 100 100 100 100 65 5 0 6 1 0 1 2 0 0 0 0 6 95 98 100 97 85 42 18
0 0 0 3 94 6 100 100 100 100 86 93 100 100 100 92 100 100 100 100 100 100 100 100 28 5 71 76 32 13 7 0 45 83 95 91 44 1 7 20 25 14 2
0 0 0 0 0 73 27 36 67 100 100 100 100 100 100 100 100 100 100 100 100 100 100 100 100 87 100 100 100 100 100 100 100 100 100 100 100 100 100 39 0 0 0
1 0 0 0 0 2 10 93 88 82 77 100 100 100 100 100 100 100 100 100 100 100 100 100 100 99 100 100 100 100 100 100 100 100 100 100 100 100 100 83 13 2 2
1 5 4 1 4 5 2 99 100 80 92 100 100 100 100 100 100 100 100 100 100 100 100 100 100 100 100 100 100 100 100 100 100 100 100 100 100 100 100 80 13 94 44
5 5 1 3 4 5 0 6 98 100 100 100 100 100 100 100 100 100 100 100 100 100 100 100 100 100 100 100 100 100 100 100 100 100 100 100 100 100 87 90 100 100 100
5 4 0 1 0 0 88 100 100 100 100 100 100 100 100 100 100 100 100 100 100 100 100 100 100 100 100 100 100 100 100 100 100 100 100 100 100 100 42 75 97 97 100
39 66 1 0 0 0 80 100 100 100 100 100 100 100 100 100 100 100 100 100 100 100 100 100 100 99 100 100 100 100 100 100 100 100 100 100 100 100 100 100 100 90 100
100 100 57 2 0 2 100 100 100 100 100 100 100 100 100 100 100 100 100 100 100 100 100 100 66 100 87 100 100 100 100 100 100 100 100 100 100 100 100 100 100 89 77

GFSMW_prec_cloud_210.txt.gz
Cloud_Cover
12 99 13 6 0 0 5 100 100 100 100 100 91 91 89 99 21 5 5 5 5 60 5 40 6 13 100 100 100 100 100 100 96 100 100 100 100 27 5 21 5 5 0
0 100 100 82 6 0 0 42 100 46 96 100 100 75 100 57 6 75 6 5 10 17 84 8 5 5 15 100 98 24 50 83 64 85 100 35 52 18 65 26 5 4 0
10 59 100 90 92 7 0 10 92 96 95 76 100 28 56 29 43 5 5 5 5 4 5 5 0 3 5 3 96 36 99 5 5 5 36 64 17 13 5 9 5 2 0
40 1 98 62 15 100 72 0 66 100 100 100 100 100 58 19 14 5 5 5 5 4 5 5 3 0 4 5 11 80 11 100 32 5 5 2 4 5 5 5 5 5 4
2 8 4 98 27 53 64 1 56 73 100 100 96 100 100 82 5 4 5 5 5 5 5 5 5 5 0 0 3 5 5 5 5 5 11 95 11 24 48 60 5 5 5
0 0 3 4 79 49 50 5 8 100 91 74 39 45 89 60 4 5 5 5 5 5 5 11 7 33 53 5 4 5 5 5 2 13 67 96 19 81 100 8 5 5 9
0 0 0 0 0 85 5 5 4 21 20 5 5 5 25 8 5 2 0 0 5 5 74 9 13 17 5 5 9 5 5 76 6 2 5 5 5 41 17 16 14 56 20
0 0 0 0 5 3 86 5 5 0 0 3 0 0 0 0 3 22 8 16 98 27 90 99 81 71 41 5 5 59 5 7 1 0 0 5 5 41 5 18 15 37 62
0 0 0 0 4 1 80 77 5 5 1 0 0 0 0 0 2 5 89 100 100 93 96 8 93 69 86 94 49 66 5 5 6 5 4 4 5 100 100 93 99 29 24
4 0 3 0 0 0 3 78 3 1 5 27 7 0 0 0 2 86 6 80 100 100 100 76 62 97 46 90 100 100 85 6 72 5 9 0 5 5 39 66 100 48 12
100 57 0 8 3 5 43 100 44 0 0 7 8 24 12 49 100 100 100 100 93 21 100 100 98 86 78 81 98 100 100 94 99 40 30 48 7 5 5 6 21 65 100
0 5 5 1 3 100 76 92 93 5 3 5 17 43 2 5 20 100 100 100 100 100 100 100 100 100 100 100 100 100 100 100 100 100 100 98 23 20 5 10 36 76 100
4 0 0 0 4 2 65 89 92 100 100 100 73 100 100 34 100 68 34 11 74 100 100 100 100 92 100 100 100 100 100 100 100 100 100 100 98 67 34 87 24 40 68
5 5 5 4 1 35 53 50 100 100 100 100 100 100 100 100 100 100 99 91 99 98 100 100 100 100 97 72 92 100 100 100 100 100 100 100 100 100 66 81 63 15 35
0 0 1 1 1 40 66 61 100 100 100 100 100 100 100 100 100 100 100 100 100 100 100 100 100 100 100 100 52 4 51 100 74 82 100 100 88 100 70 15 5 17 47
0 0 0 0 0 0 0 2 100 100 100 100 100 100 100 100 93 5 5 100 100 100 100 100 100 100 100 70 0 0 1 2 4 14 58 100 98 100 100 100 17 5 6
0 0 0 0 0 0 0 0 13 92 100 100 100 100 100 100 100 67 10 95 100 100 100 100 100 100 100 100 9 1 0 0 0 0 4 19 98 100 100 81 62 35 6
0 0 0 0 0 0 0 0 6 95 100 100 100 90 83 9 100 34 63 78 70 100 91 100 100 100 100 99 14 91 46 0 0 0 0 0 0 1 1 5 8 21 8
0 0 0 0 0 0 0 0 0 5 7 20 62 66 5 58 92 100 83 65 20 54 100 100 100 100 100 100 87 88 69 35 9 0 0 36 78 100 100 93 16 2 23
0 0 0 0 0 0 0 0 15 18 6 96 18 70 5 14 56 31 66 75 100 100 100 100 100 100 100 100 100 100 100 100 100 100 96 94 96 97 100 100 100 90 29
0 0 0 0 0 0 0 0 0 8 6 10 10 13 12 7 15 5 59 100 100 100 100 100 100 100 100 100 100 100 100 100 100 100 91 6 37 30 53 86 50 100 16
1 0 0 0 0 0 0 0 0 0 5 7 32 5 5 8 15 60 100 100 100 100 100 100 100 100 100 100 100 100 100 100 100 96 68 100 99 92 58 86 58 98 70
100 51 2 2 4 0 0 0 2 2 1 5 5 5 72 6 5 87 66 100 100 100 100 100 100 100 100 100 100 100 100 100 100 100 96 98 100 100 100 100 96 93 100
99 73 49 25 0 0 0 0 12 76 2 49 80 76 27 96 95 93 100 100 100 100 100 100 100 100 100 100 100 100 100 100 100 100 100 100 91 100 100 100 100 100 100
97 98 100 100 97 82 75 1 0 4 1 0 0 25 86 5 27 100 100 100 100 100 100 100 100 100 100 100 100 100 100 100 100 100 100 100 100 100 100 85 93 88 100
100 100 100 100 100 100 98 7 0 0 0 6 0 6 6 5 20 98 100 100 100 100 100 100 100 100 100 100 100 100 100 100 100 100 100 100 100 100 100 100 100 100 100

GFSMW_prec_cloud_216.txt.gz
Cloud_Cover
4 100 100 18 5 92 48 100 100 100 100 100 99 100 59 51 33 1 0 0 0 0 0 1 5 1 100 100 100 100 100 100 89 25 62 64 53 5 5 5 5 6 4
5 49 70 100 34 9 100 100 99 100 100 98 95 91 90 77 86 76 52 6 0 0 0 0 0 0 1 4 41 78 100 100 6 47 70 100 42 12 6 5 16 30 5
6 4 5 74 100 67 14 100 90 20 96 98 100 97 15 9 19 5 24 6 5 4 0 0 0 0 0 0 0 1 1 22 3 0 44 58 98 67 0 8 4 14 5
0 4 5 48 100 68 74 81 100 100 34 100 94 96 66 84 55 44 80 65 15 4 5 5 5 0 0 0 0 0 0 0 9 0 20 0 6 100 99 30 56 5 8
0 3 49 69 100 100 33 6 88 100 94 88 100 90 98 100 18 97 85 34 25 5 5 4 5 0 0 0 0 35 0 2 2 3 3 3 29 5 17 100 100 8 31
0 1 5 54 19 79 100 93 30 32 100 100 100 100 100 100 100 92 25 40 34 66 52 7 5 2 0 1 2 0 0 2 4 0 15 24 23 42 58 84 82 100 100
3 53 5 5 5 5 42 100 100 85 17 100 100 100 100 97 99 100 83 93 100 100 100 14 30 11 6 12 88 100 59 2 5 0 1 22 0 9 51 93 81 75 100
4 23 63 6 4 1 17 11 100 100 52 97 100 100 100 100 100 100 100 100 100 100 100 100 83 100 96 100 64 100 100 100 9 5 5 5 5 5 19 82 97 91 67
74 100 90 77 100 99 33 12 15 10 68 28 100 98 100 89 100 100 100 100 100 99 70 34 97 87 100 96 65 100 100 100 100 100 16 10 5 5 5 23 42 24 89
68 52 48 54 77 57 34 29 28 28 28 38 31 77 95 99 72 30 8 53 100 100 9 5 40 16 24 80 38 100 100 100 100 100 100 100 38 12 9 5 72 64 20
5 5 5 26 42 58 98 88 65 47 45 22 29 20 8 8 10 12 24 29 14 6 5 100 82 87 100 83 99 85 100 100 100 100 100 100 91 100 100 100 100 99 15
0 0 0 0 0 25 22 98 96 100 100 100 99 90 45 29 16 5 0 1 27 7 16 13 25 100 99 100 100 100 94 100 100 100 100 100 100 100 100 100 88 100 100
0 0 0 0 0 0 57 100 95 95 98 94 100 100 81 87 82 100 76 82 42 32 5 20 15 28 12 73 100 100 100 100 100 100 65 93 100 100 100 100 100 100 100
0 0 0 0 0 0 0 40 100 100 98 39 100 100 100 64 54 83 57 98 100 100 55 35 88 61 62 35 14 56 99 100 100 87 100 100 100 100 100 97 100 86 100
0 0 0 0 0 0 0 0 1 27 41 40 60 96 100 100 96 96 87 88 91 49 1 0 10 41 100 84 43 34 51 35 30 55 36 63 100 100 99 99 100 100 100
0 0 0 0 0 0 0 0 0 0 4 35 62 72 93 100 95 100 99 100 100 100 100 100 100 90 100 100 100 72 8 24 51 48 78 58 12 41 94 100 100 22 11
0 0 0 0 0 0 0 0 0 0 0 5 13 60 69 36 59 42 34 43 85 6 77 100 76 100 100 100 100 100 100 84 33 46 54 63 21 5 19 24 50 5 2
0 0 0 0 1 4 0 0 0 0 0 0 0 13 63 70 62 81 79 63 28 13 68 100 42 79 100 100 100 100 54 100 100 99 49 57 56 57 47 74 17 0 0
0 19 23 2 32 52 82 20 0 7 4 0 5 1 3 16 25 18 41 48 15 9 5 78 73 27 100 100 97 100 100 100 100 100 100 94 75 21 28 9 26 6 5
30 88 100 39 68 100 100 100 66 1 19 52 54 15 1 4 15 0 4 14 87 100 61 15 98 70 58 78 100 100 100 100 100 100 100 100 77 74 60 4 8 13 19
87 38 48 100 100 78 100 100 100 61 32 91 92 10 0 0 1 0 0 0 45 72 74 45 100 60 56 43 99 100 100 57 82 100 100 75 100 50 12 6 3 7 30
27 58 99 88 98 100 100 100 100 100 100 96 76 45 5 0 0 0 0 0 2 77 62 9 56 100 75 38 64 46 85 99 75 99 100 100 100 79 78 66 5 69 78
43 69 100 100 98 97 100 100 100 100 100 100 97 43 17 0 0 0 0 0 0 0 8 21 30 71 93 95 100 100 94 95 99 100 100 100 100 100 100 92 94 98 50
86 98 100 100 100 100 99 100 100 100 100 100 100 93 21 0 0 0 0 5 1 3 4 5 74 31 23 92 99 100 100 100 100 100 100 100 100 100 100 100 95 34 47
98 83 100 100 100 100 100 100 100 100 100 100 100 92 46 2 0 0 0 56 8 21 5 5 5 100 83 30 61 54 83 100 100 100 90 100 100 100 100 100 100 100 94
84 81 100 100 100 100 94 100 100 100 100 100 100 95 94 31 43 1 41 100 73 100 100 100 96 46 94 100 100 100 100 100 100 100 100 98 100 100 100 100 100 100 100

GFSMW_prec_cloud_219.txt.gz
Cloud_Cover
2 70 80 4 0 81 100 100 100 100 100 100 99 29 100 100 93 100 97 13 82 100 31 89 92 6 47 82 97 100 100 100 97 76 100 97 6 100 80 100 86 100 84
33 1 93 38 5 61 100 100 100 100 100 100 100 100 90 83 87 92 100 21 79 95 100 11 16 18 17 42 69 100 100 100 100 66 100 98 94 99 48 26 50 61 50
0 3 100 57 59 16 45 98 100 100 100 100 100 80 90 41 71 100 57 91 100 95 9 7 3 21 0 6 69 18 46 26 88 10 26 51 84 100 86 4 26 6 4
0 3 97 63 90 11 62 99 100 78 100 100 100 100 98 98 100 100 9 10 50 44 82 70 53 52 8 3 40 0 13 65 19 100 36 3 69 17 100 95 97 43 25
0 0 50 100 55 95 7 35 100 100 98 100 100 100 100 100 100 100 100 100 100 98 96 100 99 69 39 63 0 0 52 40 10 42 68 58 9 2 30 100 100 100 100
0 0 0 13 53 100 100 5 56 100 100 82 65 63 100 100 100 100 100 100 100 100 89 39 84 67 89 50 31 11 0 0 5 10 8 11 39 68 17 86 77 100 100
0 5 5 4 5 18 100 100 82 82 100 100 57 59 45 92 62 100 100 100 100 100 100 73 100 97 5 34 32 43 75 100 100 79 5 0 21 11 4 85 30 47 100
72 5 18 12 5 5 21 98 100 100 63 100 100 85 99 100 100 100 100 100 100 100 100 98 49 100 5 92 52 13 57 97 100 100 80 8 5 5 5 5 36 95 58
87 100 97 75 60 59 28 35 54 30 22 59 100 93 100 99 100 100 100 100 100 100 100 97 22 93 7 5 5 5 35 97 100 100 100 100 95 75 5 5 6 2 100
1 26 90 43 55 78 82 100 100 100 100 71 97 51 100 100 100 100 100 100 100 100 68 74 93 60 6 5 5 7 100 99 100 100 100 100 100 100 100 42 28 90 94
3 0 2 2 5 32 17 9 99 100 100 100 100 100 98 100 100 88 99 100 100 43 79 63 24 87 57 5 48 90 20 41 100 100 100 100 100 100 100 100 100 100 100
0 0 0 0 0 0 22 27 45 92 100 100 100 100 100 100 100 100 98 100 100 100 99 0 1 3 5 21 68 94 100 24 40 100 99 100 100 100 100 100 100 100 100
0 0 0 0 0 0 0 9 0 74 49 100 100 43 44 99 100 100 96 100 100 100 100 100 43 12 1 7 99 26 96 100 76 99 100 38 88 100 100 100 100 100 100
0 0 0 0 0 0 0 0 4 7 45 100 88 75 32 100 97 100 100 100 100 100 100 96 100 97 98 38 7 58 25 44 100 96 100 91 100 75 99 100 100 100 97
0 0 0 0 0 0 0 0 0 0 11 4 32 100 99 8 43 100 99 58 26 66 99 61 27 50 78 58 90 13 7 5 48 98 100 100 100 100 100 78 100 100 92
0 0 0 0 0 0 0 0 0 0 8 12 96 100 30 72 32 9 53 94 5 4 7 7 5 5 3 0 0 0 5 0 2 4 61 100 100 100 100 51 100 100 85
0 0 0 0 0 2 14 7 5 0 17 17 11 85 20 11 71 91 74 26 44 12 59 34 25 64 99 94 19 2 8 95 7 5 5 26 35 100 69 11 43 98 99
0 0 2 10 3 10 17 9 47 82 9 19 32 26 43 19 4 48 16 12 24 75 50 77 14 100 7 52 64 95 100 99 33 62 58 52 5 5 45 99 100 32 8
0 0 0 4 17 16 25 16 0 8 13 100 100 88 53 40 28 1 0 0 5 12 72 46 95 14 4 21 5 70 65 100 60 84 100 100 12 6 89 22 99 98 3
0 0 0 0 3 29 27 76 77 6 19 98 100 100 94 26 58 2 0 0 0 3 5 19 32 10 18 5 9 35 100 100 65 12 8 64 100 68 71 1 3 5 5
0 0 0 0 2 40 100 97 100 96 67 35 52 59 16 54 100 2 0 0 0 0 0 0 2 0 5 5 75 99 100 83 80 100 100 100 100 100 100 26 4 5 8
0 5 5 3 70 73 88 100 85 79 84 100 87 90 90 41 39 5 0 0 0 0 0 0 0 0 70 0 5 100 93 94 87 96 94 100 24 100 100 100 96 5 67
29 28 26 72 100 100 90 99 100 73 94 95 81 100 100 86 2 0 0 4 0 0 0 6 98 55 84 72 95 100 100 94 100 88 25 54 49 97 100 100 100 91 8
76 100 100 100 100 100 100 95 79 85 100 100 100 100 100 80 24 77 11 2 92 82 99 18 55 0 0 26 34 9 39 59 81 99 97 63 80 98 98 100 100 100 94
100 100 100 100 100 100 100 100 99 100 100 100 83 100 86 58 36 53 100 66 96 73 74 13 4 0 4 9 60 63 6 75 57 80 100 100 100 100 100 100 100 100 100
100 100 99 100 100 100 100 100 100 100 100 100 100 100 55 53 42 12 21 10 2 0 74 96 54 1 50 100 100 100 100 100 100 87 98 100 100 100 100 100 100 100 89

GFSMW_prec_cloud_222.txt.gz
Cloud_Cover
0 13 67 0 0 33 100 100 100 100 84 7 44 5 5 46 100 53 100 100 100 100 80 83 91 63 23 28 100 100 100 80 100 94 100 100 100 100 100 40 32 100 1
0 4 0 51 0 96 100 100 100 100 100 98 100 57 6 51 58 35 100 100 100 85 100 100 92 90 60 94 40 99 33 100 100 79 100 100 100 100 100 100 69 3 8
78 100 100 3 4 80 100 100 95 62 100 100 100 98 100 77 100 90 97 100 100 58 100 68 100 42 4 0 1 5 5 88 97 100 2 20 13 90 100 100 84 100 100
81 100 65 1 4 5 100 100 100 100 79 100 98 100 99 100 5 5 7 100 100 48 96 90 18 25 5 0 0 43 0 2 6 88 74 94 2 100 100 100 100 89 100
0 0 13 100 22 3 5 86 100 100 100 98 100 100 83 87 26 21 14 7 22 4 0 4 73 80 0 0 0 0 0 0 2 3 0 1 3 34 100 95 54 100 100
0 0 1 100 21 100 69 4 47 100 100 100 100 85 100 100 100 83 97 100 100 10 24 18 2 9 3 4 1 1 0 0 1 48 1 4 27 0 96 13 85 100 100
0 0 0 0 53 100 100 83 4 43 100 86 90 100 100 99 97 100 100 100 100 100 15 100 70 5 22 96 55 100 38 48 23 79 100 91 8 0 95 64 5 30 89
0 0 5 5 2 4 100 100 100 99 54 100 89 95 100 54 99 100 100 99 97 100 100 100 82 57 46 58 32 100 32 60 18 68 9 84 87 65 0 2 5 5 4
0 2 5 43 5 5 5 56 100 100 100 99 100 100 94 6 67 59 100 100 96 100 100 40 26 83 95 33 6 97 69 5 5 18 100 100 23 59 87 5 5 66 14
0 0 0 0 0 3 1 6 84 100 100 100 100 94 100 70 3 33 86 71 100 66 78 92 35 55 81 96 57 100 81 5 5 34 32 100 24 69 98 100 95 94 77
0 0 0 0 0 0 4 12 5 100 100 100 100 100 100 100 100 96 88 61 78 95 100 72 90 43 74 100 100 100 5 17 72 73 19 24 100 78 98 100 100 100 100
0 0 0 0 0 0 0 0 0 1 44 100 100 100 100 100 100 100 100 100 100 100 100 100 100 100 100 100 100 100 64 5 34 58 91 100 72 32 37 85 82 99 100
0 0 0 0 0 0 0 0 0 0 0 0 19 90 100 100 100 100 100 95 100 100 100 100 100 100 100 100 100 79 86 5 61 64 83 81 100 100 59 81 80 100 92
0 0 0 0 0 0 0 0 0 0 0 0 0 0 43 100 81 87 77 100 100 100 100 100 100 100 100 100 100 96 39 18 100 19 43 6 71 75 10 99 100 100 100
0 0 0 0 0 0 0 0 0 0 0 0 0 0 0 1 4 8 57 76 100 100 100 60 100 100 100 100 98 100 100 95 56 87 59 22 29 71 17 100 100 99 66
0 0 0 0 0 0 0 0 1 23 0 0 0 0 0 0 0 0 0 0 0 0 5 5 5 45 85 99 99 93 100 83 66 80 5 81 100 5 38 100 83 94 100
0 0 0 0 0 0 0 0 0 0 0 0 0 0 0 0 0 0 0 0 0 0 32 72 14 5 3 5 5 6 5 5 2 24 100 73 73 100 26 82 81 100 77
0 0 0 0 0 0 0 2 2 0 0 0 0 0 0 0 0 0 1 0 0 0 0 0 0 4 5 1 0 8 5 5 65 36 42 4 23 15 99 91 100 100 100
0 0 0 0 0 0 0 0 0 74 86 6 19 0 15 14 7 0 0 0 0 0 0 0 0 0 5 5 0 0 9 5 26 11 13 2 6 97 5 12 5 5 12
0 0 0 0 0 0 5 5 48 100 99 100 45 2 0 8 0 0 0 0 0 0 0 0 0 0 0 0 5 6 3 5 6 5 5 32 5 34 100 45 16 0 0
0 0 0 0 0 0 3 51 31 33 38 5 2 2 30 20 6 0 0 0 0 0 0 0 0 0 0 0 3 0 2 5 5 60 95 100 72 27 94 100 78 9 3
0 0 0 0 12 28 25 28 83 20 75 16 97 100 53 94 100 14 0 0 0 0 0 0 0 0 0 27 26 95 93 44 53 100 88 100 100 69 42 47 98 79 86
0 0 0 3 20 51 87 97 100 100 100 100 100 100 50 64 50 7 1 0 0 0 0 0 0 46 89 8 39 100 100 94 62 100 100 100 100 100 100 82 80 25 82
0 0 1 41 96 100 100 100 100 100 100 100 100 100 99 96 0 18 15 1 4 3 0 32 8 99 100 19 0 1 0 6 42 59 88 100 100 100 92 64 100 82 10
0 0 23 93 92 100 100 100 100 100 100 100 100 100 100 55 0 59 55 43 36 23 4 31 24 89 98 72 54 44 5 3 36 95 16 38 90 93 100 80 78 100 100
0 3 36 30 100 100 100 100 100 100 100 100 100 100 100 36 16 12 2 6 10 5 2 1 54 0 11 60 100 100 100 100 100 18 10 22 11 91 14 100 42 100 97